Waarnemingen

Advertentie
Mijn weer
Rotterdam Zestienhoven, Nederland (6344): temperatuur & dauwpunt: 21.03.2017 06:00:00 - 27.03.2017 06:00:00 (CEST)Rotterdam Zestienhoven, Nederland (6344): temperatuur 5cm: 21.03.2017 06:00:00 - 27.03.2017 06:00:00 (CEST)Rotterdam Zestienhoven, Nederland (6344): windsnelheid & windstoten: 21.03.2017 06:00:00 - 27.03.2017 06:00:00 (CEST)Rotterdam Zestienhoven, Nederland (6344): windrichting: 21.03.2017 06:00:00 - 27.03.2017 06:00:00 (CEST)Rotterdam Zestienhoven, Nederland (6344): luchtdruk: 21.03.2017 06:00:00 - 27.03.2017 06:00:00 (CEST)Rotterdam Zestienhoven, Nederland (6344): zicht: 21.03.2017 06:00:00 - 27.03.2017 06:00:00 (CEST)Rotterdam Zestienhoven, Nederland (6344): neerslag: 21.03.2017 06:00:00 - 27.03.2017 06:00:00 (CEST)
Datum & Tijd tt [°C] td [°C] tt 5cm [°C] ff [km/u] ff [kn] fx [km/u] fx [kn] dd ppp [hPa] vv [km] rr [mm]
27.03.2017 06:00:00 3,8 3,2 -0,8 5 3 7 4 NO 1023,5 5 0,0
27.03.2017 05:00:00 2,5 2,1 -0,2 8 4 11 6 NO 1023,6 5 0,0
27.03.2017 04:00:00 3,8 2,9 -0,3 8 4 11 6 NNO 1024,0 6 0,0
27.03.2017 03:00:00 4,5 3,5 0,3 5 3 11 6 NNO 1024,4 7 0,0
27.03.2017 02:00:00 5,1 3,8 1,3 8 4 11 6 NNO 1024,5 7 0,0
27.03.2017 01:00:00 4,3 3,4 2,1 9 5 14 8 ONO 1024,5 9 0,0
27.03.2017 00:00:00 5,4 4,2 3,9 11 6 18 10 ONO 1024,7 10 0,0
26.03.2017 23:00:00 6,7 5,1 4,9 13 7 18 10 NO 1024,8 10 0,0
26.03.2017 22:00:00 7,7 5,6 5,8 11 6 18 10 NO 1024,9 10 0,0
26.03.2017 21:00:00 8,5 6,1 6,7 13 7 22 12 NO 1024,5 10 0,0
26.03.2017 20:00:00 9,5 6,4 7,9 15 8 22 12 NO 1024,2 10 0,0
26.03.2017 19:00:00 10,9 7,3 10,5 16 9 29 16 NO 1024,0 10 0,0
26.03.2017 18:00:00 11,6 7,1 12,2 21 11 29 16 NO 1024,1 10 0,0
26.03.2017 17:00:00 12,5 7,8 13,2 21 11 29 16 ONO 1024,4 10 0,0
26.03.2017 16:00:00 12,5 7,4 13,7 18 10 25 14 NO 1024,6 10 0,0
26.03.2017 15:00:00 12,3 7,7 13,9 18 10 25 14 ONO 1025,0 10 0,0
26.03.2017 14:00:00 10,6 6,6 11,9 18 10 25 14 ONO 1025,6 10 0,0
26.03.2017 13:00:00 10,1 6,3 11,1 16 9 25 14 ONO 1025,9 10 0,0
26.03.2017 12:00:00 9,5 6,1 11,1 15 8 32 18 O 1025,9 10 0,0
26.03.2017 11:00:00 8,4 5,4 10,1 21 11 32 18 ONO 1026,1 10 0,0
26.03.2017 10:00:00 6,9 4,3 7,7 16 9 29 16 ONO 1026,0 10 0,0
26.03.2017 09:00:00 5,4 3,3 4,8 11 6 18 10 ONO 1026,0 10 0,0
26.03.2017 08:00:00 3,7 2,2 2,1 13 7 22 12 NO 1025,9 10 0,0
26.03.2017 07:00:00 3,2 1,6 1,6 11 6 14 8 ONO 1025,7 10 0,0
26.03.2017 06:00:00 3,6 1,8 2,2 11 6 18 10 ONO 1025,6 10 0,0
26.03.2017 05:00:00 4,3 2,5 3,2 15 8 22 12 ONO 1025,7 10 0,0
26.03.2017 04:00:00 4,6 2,6 3,6 16 9 22 12 NO 1025,6 10 0,0
26.03.2017 03:00:00 5,4 2,7 4,4 16 9 25 14 ONO 1025,7 10 0,0
26.03.2017 02:00:00 5,4 2,0 4,4 18 10 32 18 NO 1025,9 10 0,0
26.03.2017 01:00:00 6,8 1,0 5,3 21 11 32 18 NO 1026,4 10 0,0
26.03.2017 00:00:00 7,0 1,2 5,4 18 10 32 18 NO 1026,6 10 0,0
25.03.2017 23:00:00 7,7 1,5 6,2 21 11 32 18 NO 1026,8 10 0,0
25.03.2017 22:00:00 8,2 0,5 6,8 24 13 40 21 NO 1026,8 10 0,0
25.03.2017 21:00:00 9,4 -0,9 7,8 22 12 32 18 NO 1026,6 10 0,0
25.03.2017 20:00:00 10,4 -0,6 8,6 24 13 40 21 NO 1026,4 10 0,0
25.03.2017 19:00:00 11,7 -0,3 10,7 26 14 43 23 NO 1026,1 10 0,0
25.03.2017 18:00:00 12,5 -0,2 12,2 28 15 40 21 NO 1026,7 10 0,0
25.03.2017 17:00:00 13,0 -0,6 13,3 28 15 40 21 NO 1027,4 10 0,0
25.03.2017 16:00:00 13,2 0,0 13,8 26 14 40 21 NO 1028,0 10 0,0
25.03.2017 15:00:00 12,9 1,7 14,0 28 15 40 21 NO 1029,1 10 0,0
25.03.2017 14:00:00 13,0 1,3 13,8 24 13 40 21 NO 1029,7 10 0,0
25.03.2017 13:00:00 11,8 2,5 12,8 29 16 40 21 NO 1030,6 10 0,0
25.03.2017 12:00:00 11,3 3,5 11,4 24 13 36 19 ONO 1031,4 10 0,0
25.03.2017 11:00:00 9,8 3,3 10,7 21 11 29 16 NO 1031,8 10 0,0
25.03.2017 10:00:00 7,1 1,6 7,8 16 9 22 12 NO 1032,0 10 0,0
25.03.2017 09:00:00 4,9 1,2 4,2 11 6 18 10 NO 1031,9 10 0,0
25.03.2017 08:00:00 2,8 0,1 0,4 11 6 14 8 ONO 1031,8 10 0,0
25.03.2017 07:00:00 1,7 -0,6 0,5 11 6 18 10 ONO 1031,7 10 0,0
25.03.2017 06:00:00 3,9 0,3 2,1 11 6 18 10 NO 1031,9 10 0,0
25.03.2017 05:00:00 4,6 0,5 2,6 15 8 25 14 NO 1031,9 10 0,0
25.03.2017 04:00:00 5,2 1,6 3,5 13 7 25 14 NO 1032,2 10 0,0
25.03.2017 03:00:00 5,5 2,4 4,0 15 8 22 12 NO 1032,5 10 0,0
25.03.2017 02:00:00 5,7 2,8 4,0 15 8 22 12 NO 1032,7 10 0,0
25.03.2017 01:00:00 6,6 2,8 4,8 13 7 25 14 NO 1032,6 10 0,0
25.03.2017 00:00:00 7,7 2,4 5,8 16 9 25 14 NO 1032,6 10 0,0
24.03.2017 23:00:00 8,2 2,5 6,2 18 10 25 14 NO 1032,2 10 0,0
24.03.2017 22:00:00 7,6 2,8 5,7 16 9 25 14 ONO 1031,4 10 0,0
24.03.2017 21:00:00 9,6 2,9 6,8 16 9 29 16 ONO 1031,0 10 0,0
24.03.2017 20:00:00 10,8 3,3 9,1 26 14 36 19 NO 1030,2 10 0,0
24.03.2017 19:00:00 11,6 4,2 10,7 26 14 40 21 NO 1029,5 10 0,0
24.03.2017 18:00:00 12,9 4,2 12,8 24 13 43 23 NO 1029,6 10 0,0
24.03.2017 17:00:00 13,4 3,6 13,7 24 13 40 21 NO 1029,3 10 0,0
24.03.2017 16:00:00 13,3 5,3 14,1 28 15 40 21 NO 1028,8 10 0,0
24.03.2017 15:00:00 12,4 5,1 13,7 26 14 40 21 ONO 1029,2 10 0,0
24.03.2017 14:00:00 12,0 6,5 12,7 29 16 40 21 ONO 1029,5 10 0,0
24.03.2017 13:00:00 10,2 5,4 11,5 28 15 40 21 ONO 1029,8 10 0,0
24.03.2017 12:00:00 9,2 4,8 10,8 22 12 32 18 ONO 1029,9 10 0,0
24.03.2017 11:00:00 8,2 4,7 8,9 22 12 32 18 ONO 1029,7 10 0,0
24.03.2017 10:00:00 6,6 4,0 7,2 21 11 29 16 ONO 1028,5 10 0,0
24.03.2017 09:00:00 5,1 3,4 4,8 18 10 29 16 ONO 1027,5 7 0,0
24.03.2017 08:00:00 4,3 2,9 3,3 18 10 32 18 NO 1026,5 6 0,0
24.03.2017 07:00:00 4,4 3,0 3,3 18 10 29 16 ONO 1025,8 5 0,0
24.03.2017 06:00:00 4,6 3,1 3,8 22 12 32 18 ONO 1025,3 6 0,0
24.03.2017 05:00:00 5,2 3,3 4,1 18 10 25 14 NO 1025,0 7 0,0
24.03.2017 04:00:00 5,3 3,3 4,4 18 10 29 16 ONO 1025,3 8 0,0
24.03.2017 03:00:00 6,0 3,5 4,6 21 11 29 16 NO 1024,3 8 0,0
24.03.2017 02:00:00 6,5 3,7 5,3 21 11 29 16 ONO 1024,2 9 0,0
24.03.2017 01:00:00 6,9 3,8 5,7 22 12 40 21 ONO 1023,1 10 0,0
24.03.2017 00:00:00 7,4 3,8 6,2 26 14 36 19 ONO 1022,3 10 0,0
23.03.2017 23:00:00 7,9 4,2 6,8 22 12 36 19 ONO 1021,4 10 0,0
23.03.2017 22:00:00 8,8 4,6 7,6 28 15 40 21 NO 1020,6 10 0,0
23.03.2017 21:00:00 9,3 4,9 7,6 16 9 29 16 NO 1019,6 10 0,0
23.03.2017 20:00:00 10,6 4,6 9,0 22 12 36 19 NO 1018,7 10 0,0
23.03.2017 19:00:00 11,8 5,2 10,9 24 13 32 18 ONO 1017,8 10 0,0
23.03.2017 18:00:00 12,9 5,4 12,2 21 11 36 19 ONO 1017,2 10 0,0
23.03.2017 17:00:00 13,6 5,5 12,8 24 13 36 19 ONO 1016,6 10 0,0
23.03.2017 16:00:00 13,7 5,1 14,1 18 10 32 18 O 1016,4 10 0,0
23.03.2017 15:00:00 12,8 4,8 13,5 26 14 40 21 O 1016,6 10 0,0
23.03.2017 14:00:00 12,4 5,1 13,6 22 12 40 21 O 1016,3 10 0,0
23.03.2017 13:00:00 11,8 4,4 12,4 28 15 40 21 O 1016,3 10 0,0
23.03.2017 12:00:00 10,6 5,0 12,4 18 10 29 16 O 1016,4 10 0,0
23.03.2017 11:00:00 8,5 4,1 9,3 11 6 18 10 O 1016,6 10 0,0
23.03.2017 10:00:00 7,2 2,9 8,1 9 5 18 10 ONO 1016,1 10 0,0
23.03.2017 09:00:00 4,2 1,6 2,2 9 5 14 8 NO 1015,8 10 0,0
23.03.2017 08:00:00 1,8 0,2 -0,6 11 6 18 10 ONO 1015,0 10 0,0
23.03.2017 07:00:00 0,9 -0,5 -0,9 13 7 14 8 ONO 1014,6 10 0,0
23.03.2017 06:00:00 0,9 -0,5 -1,1 8 4 11 6 NO 1014,6 10 0,0
23.03.2017 05:00:00 1,8 0,2 -0,5 8 4 14 8 O 1014,5 10 0,0
23.03.2017 04:00:00 3,0 1,2 0,1 9 5 14 8 O 1014,4 10 0,0
23.03.2017 03:00:00 5,3 2,4 2,9 11 6 18 10 O 1014,2 10 0,0
23.03.2017 02:00:00 5,6 2,9 4,4 13 7 18 10 O 1014,1 10 0,0
23.03.2017 01:00:00 6,4 2,9 5,0 13 7 22 12 O 1013,8 10 0,0
23.03.2017 00:00:00 7,4 3,0 5,6 15 8 22 12 OZO 1013,8 10 0,0
22.03.2017 23:00:00 8,2 3,2 6,8 15 8 25 14 O 1013,4 10 0,0
22.03.2017 22:00:00 9,7 3,2 8,7 13 7 25 14 OZO 1013,2 10 0,0
22.03.2017 21:00:00 10,0 3,1 9,0 11 6 29 16 OZO 1013,0 10 0,0
22.03.2017 20:00:00 10,1 2,9 8,0 9 5 22 12 ZO 1012,3 10 0,0
22.03.2017 19:00:00 10,9 0,0 9,5 15 8 32 18 ZZO 1011,9 10 0,0
22.03.2017 18:00:00 12,0 1,9 11,4 21 11 32 18 ZO 1011,4 10 0,0
22.03.2017 17:00:00 11,9 0,7 10,7 18 10 32 18 ZZO 1011,6 10 0,0
22.03.2017 16:00:00 11,9 0,7 11,6 22 12 40 21 ZZO 1011,7 31 0,0
22.03.2017 15:00:00 12,0 -1,2 11,9 28 15 43 23 ZZO 1011,9 10 0,0
22.03.2017 14:00:00 11,3 0,4 12,4 24 13 43 23 ZZO 1012,3 10 0,0
22.03.2017 13:00:00 10,2 -0,3 11,5 29 16 50 27 ZZO 1012,6 10 0,0
22.03.2017 12:00:00 9,6 -0,4 11,3 21 11 36 19 ZZO 1012,9 10 0,0
22.03.2017 11:00:00 8,1 1,0 9,5 18 10 29 16 ZZO 1013,0 10 0,0
22.03.2017 10:00:00 7,1 1,0 7,8 18 10 29 16 ZZO 1012,7 10 0,0
22.03.2017 09:00:00 5,0 0,7 4,4 15 8 32 18 Z 1012,7 10 0,0
22.03.2017 08:00:00 3,9 0,0 2,1 15 8 22 12 Z 1012,4 10 0,0
22.03.2017 07:00:00 4,0 0,6 1,3 15 8 18 10 ZZO 1012,1 10 0,0
22.03.2017 06:00:00 3,5 0,7 1,6 13 7 22 12 ZZO 1012,3 10 0,0
22.03.2017 05:00:00 3,9 1,3 1,7 11 6 22 12 Z 1012,7 10 0,0
22.03.2017 04:00:00 4,5 1,9 2,6 13 7 22 12 Z 1012,7 10 0,0
22.03.2017 03:00:00 4,9 2,0 2,7 11 6 22 12 Z 1012,7 10 0,0
22.03.2017 02:00:00 4,8 1,7 2,9 11 6 22 12 Z 1012,7 10 0,0
22.03.2017 01:00:00 5,7 1,5 4,1 16 9 32 18 ZZW 1012,8 10 0,0
22.03.2017 00:00:00 6,2 1,4 4,5 18 10 29 16 ZW 1012,9 10 0,0
21.03.2017 23:00:00 6,3 2,5 4,6 16 9 32 18 ZZW 1012,3 10 0,0
21.03.2017 22:00:00 7,0 2,5 5,1 21 11 32 18 ZW 1012,3 10 0,0
21.03.2017 21:00:00 7,2 1,7 5,4 26 14 36 19 ZW 1012,2 10 0,0
21.03.2017 20:00:00 6,8 1,0 5,1 21 11 40 21 ZW 1011,8 10 0,0
21.03.2017 19:00:00 7,6 1,2 6,9 22 12 40 21 WZW 1011,5 10 0,0
21.03.2017 18:00:00 8,6 -0,3 9,0 24 13 43 23 WZW 1011,1 10 0,0
21.03.2017 17:00:00 8,3 0,2 9,4 26 14 43 23 WZW 1010,9 10 0,0
21.03.2017 16:00:00 8,8 1,2 9,9 24 13 43 23 WZW 1010,6 10 0,0
21.03.2017 15:00:00 8,4 0,3 9,2 24 13 40 21 W 1010,4 10 0,0
21.03.2017 14:00:00 7,7 1,5 8,3 26 14 40 21 W 1010,2 10 0,0
21.03.2017 13:00:00 8,5 1,7 8,9 28 15 47 25 W 1009,5 10 0,0
21.03.2017 12:00:00 8,0 1,8 7,9 26 14 43 23 W 1009,0 10 0,0
21.03.2017 11:00:00 7,8 2,8 7,7 26 14 43 23 W 1008,0 10 0,0
21.03.2017 10:00:00 7,9 4,0 7,5 24 13 43 23 W 1007,1 10 0,0
21.03.2017 09:00:00 8,4 5,3 7,4 16 9 36 19 WZW 1006,3 10 0,0
21.03.2017 08:00:00 7,7 6,0 6,5 21 11 36 19 WZW 1005,7 10 0,0
21.03.2017 07:00:00 7,3 5,2 5,7 16 9 32 18 WZW 1005,5 10 0,0
21.03.2017 06:00:00 - - - - - - - - - - -

tt = temperatuur
td = dauwpunt
tt 5cm = temperatuur 5cm
ff = windsnelheid
fx = windstoten
dd = windrichting
ppp = luchtdruk
vv = zicht
rr = neerslag

Weerstations in de omgeving